Regional Weather Roundup
Issued by NWS Columbia, SC

Home | Current Version | Previous Version | Text Only | Print | Product List | Glossary On
Versions: 1 2 3 4 5 6 7 8 9 10 11 12 13 14 15 16 17 18 19 20 21 22 23 24 25 26 27 28 29 30 31 32 33 34 35 36 37 38 39 40 41 42 43 44 45 46 47 48 49 50
000
ASUS42 KCAE 112110
RWRCAE
REGIONAL WEATHER ROUNDUP
NATIONAL WEATHER SERVICE COLUMBIA SC
400 PM EST MON DEC 11 2017

NOTE: "FAIR" INDICATES FEW OR NO CLOUDS BELOW 12,000 FEET WITH NO
SIGNIFICANT WEATHER AND/OR OBSTRUCTIONS TO VISIBILITY.

NOT ALL STATIONS ARE QUALITY CONTROLLED BY THE NATIONAL
WEATHER SERVICE. USE DATA WITH CAUTION...ESPECIALLY
DEWPOINT OBSERVATIONS.

SCZ001>056-GAZ040-063>065-077-112200-
...UPSTATE SOUTH CAROLINA...

CITY           SKY/WX    TMP DP  RH WIND       PRES   REMARKS
ANDERSON       SUNNY     59  31  34 SW13      30.00F
LIBERTY        CLEAR     58  32  37 SW9       29.99S
SPARTANBURG    SUNNY     55  30  38 CALM      29.99F
CLEMSON        SUNNY     58  31  35 VRB6      30.00F
GREENVILLE     SUNNY     58  31  35 SW10      30.00F
GREENWOOD      SUNNY     57  32  38 SW9       30.02F
GREER          SUNNY     55  31  39 SW9       30.00F
ROCK HILL      SUNNY     55  31  39 SW9       30.01S
CHESTER        CLEAR     54  28  37 S5        30.02R
LAURENS        CLEAR     55  32  41 S7        30.00F


...CENTRAL SOUTH CAROLINA...

CITY           SKY/WX    TMP DP  RH WIND       PRES   REMARKS
COLUMBIA APT   SUNNY     59  32  36 S8        30.03F
COLUMBIA OWENS SUNNY     59  30  33 SW6       30.04F
MCENTIRE ANGB  SUNNY     58  29  34 S3        30.03F
ORANGEBURG     SUNNY     57  32  38 SW7       30.04F
SUMTER SHAW    SUNNY     61  28  29 S9        30.05S
NEWBERRY       CLEAR     55  34  44 S6        30.05F
AIKEN          FAIR      55  32  41 SW8       30.07S
BARNWELL         N/A     61  36  39 SW7       30.05F
MANNING        FAIR     N/A N/A N/A MISG      30.05F
CAMDEN         FAIR      55  30  38 CALM      30.04S
LANCASTER      CLEAR     55  27  33 SW7       30.02S
WINNSBORO      CLEAR     55  32  41 SW9       30.02S


...EASTERN AND COASTAL SOUTH CAROLINA...

CITY           SKY/WX    TMP DP  RH WIND       PRES   REMARKS
MYRTLE BEACH   SUNNY     51  37  58 S7        30.07F
N MYRTLE BCH   SUNNY     51  37  58 S7        30.05F
CONWAY         FAIR      54  30  40 SW3       30.05F
MARION         FAIR      52  28  40 CALM      30.05F
HARTSVILLE     FAIR      54  30  40 S3        30.02F
FLORENCE       SUNNY     55  28  35 S5        30.04F
DARLINGTON     SUNNY     55  31  39 S7        30.04F
CHARLESTON APT SUNNY     57  32  38 W6        30.06F
MOUNT PLEASANT FAIR      55  32  41 W5        30.07S
WALTERBORO     CLEAR     57  34  41 W5        30.07S
BEAUFORT       SUNNY     59  36  42 SW6       30.08S


...EASTERN GEORGIA...

CITY           SKY/WX    TMP DP  RH WIND       PRES   REMARKS
AUGUSTA BUSH F SUNNY     61  32  33 SW8       30.04F
AUGUSTA DANIEL SUNNY     62  32  32 SW9       30.04F
THOMSON        SUNNY     60  33  35 NW8       30.09S
CLAXTON        FAIR      63  36  36 SW5       30.09S
SYLVANIA       CLEAR     60  37  42 W7        30.08S
STATESBORO     SUNNY     61  29  29 W7        30.08S
SAVANNAH       MOSUNNY   61  33  35 W10       30.09S


...SOUTHERN NORTH CAROLINA...

CITY           SKY/WX    TMP DP  RH WIND       PRES   REMARKS
CHARLOTTE      SUNNY     54  30  40 S10       30.00F
MONROE         SUNNY     54  28  36 SW9       30.00F
WADESBORO      CLEAR     56  26  31 S6        30.02F
RUTHERFORDTON  SUNNY     54  28  37 SW6       29.99F
ASHEVILLE      SUNNY     50  25  37 S3        29.97F

$$



USA.gov is the U.S. government's official web portal to all federal, state and local government web resources and services.